SITRO-AIS 11 (SHEFFER)

Last updated on Sun Jun 21 2026 00:03:50 GMT+0000 (Coordinated Universal Time)

1 57208U 23091AU 26171.46585007 .00017161 00000+0 44666-3 0 9993 2 57208 97.5084 242.5320 0006969 65.6009 294.5963 15.38942801165293
UTC large
Height (km)
Speed (km/s)
/
Latitude / Longitude
Inclination (degrees)
Orbital Period (minutes)
Azimuth
Elevation
Range (km)
Doppler Factor

Next 0 passes for location: London (51.5072 / 0.1276)

No passes found over London.
SITRO-AIS 11 (SHEFFER)